Location: State Camp
(41.2367°N, 77.7828°W)
Time: 01:49:29
(UTC-05:00)

Amateur Radio Satellites - All Passes

Search period start: 03 December 2016 01:19
Search period end: 04 December 2016 01:19
Location: State Camp, 41.2367°N, 77.7828°W

Satellite Date Start Highest point End Downlink Frequencies (MHz)
Time Altitude Azimuth
DUCHIFAT 1 03 Dec 01:19:36 01:22:01 15° 296° (WNW) 01:24:24 145.980
Cosmos 2499 03 Dec 01:20:27 01:28:54 87° 278° (W) 01:37:50 435.465 / 435.565
Gurwin Techsat 1B 03 Dec 01:26:54 01:31:28 28° 95° (E) 01:35:59 435.225
AO-85 03 Dec 01:37:30 01:39:56 14° 109° (ESE) 01:42:18 145.980
PHONESAT 2.4 03 Dec 01:40:14 01:42:07 17° 154° (SSE) 01:44:01 2401.200-2431.200
SWISSCUBE 03 Dec 01:43:24 01:48:08 66° 74° (ENE) 01:52:52 437.505
BEESAT 03 Dec 01:47:51 01:52:35 66° 74° (ENE) 01:57:19 436.000
MOZHAYETS 4 03 Dec 01:51:00 01:53:52 17° 64° (ENE) 01:56:45
Oscar 19 03 Dec 01:59:49 02:05:00 74° 286° (WNW) 02:10:11 437.125/150
TISAT 1 03 Dec 02:01:13 02:03:58 17° 267° (W) 02:06:44 437.305
AUBIESAT-1 03 Dec 02:07:27 02:11:17 44° 257° (WSW) 02:15:25 437.475
ITUPSAT 1 03 Dec 02:13:01 02:17:47 71° 257° (WSW) 02:22:35 437.325
M-CUBED/EXP-1 PRIME 03 Dec 02:17:05 02:20:30 28° 260° (W) 02:24:11 437.505
ITAMSAT 1 03 Dec 02:21:08 02:24:56 20° 93° (E) 02:28:41 435.822/435.867
O/OREOS (USA 219) 03 Dec 02:36:27 02:40:57 84° 66° (ENE) 02:45:24 437.305
KKS-1 03 Dec 02:46:28 02:50:12 27° 68° (ENE) 02:53:58 437.445
AO-7 03 Dec 03:00:08 03:07:30 33° 97° (E) 03:14:49 29.400- 29.500
STARS 03 Dec 03:03:11 03:06:19 19° 65° (ENE) 03:09:28 437.465
Gurwin Techsat 1B 03 Dec 03:06:36 03:11:27 37° 292° (WNW) 03:16:16 435.225
GONETS M04 03 Dec 03:09:17 03:15:56 24° 295° (WNW) 03:22:36
PHONESAT 2.4 03 Dec 03:14:28 03:17:06 59° 169° (S) 03:19:44 2401.200-2431.200
AO-85 03 Dec 03:14:58 03:19:55 73° 303° (WNW) 03:24:31 145.980
Cosmos 2499 03 Dec 03:17:38 03:23:24 19° 299° (WNW) 03:29:22 435.465 / 435.565
CUBESAT XI-V 03 Dec 03:20:23 03:23:43 20° 66° (ENE) 03:27:03 437.345
SWISSCUBE 03 Dec 03:24:13 03:26:21 13° 270° (W) 03:28:29 437.505
MOZHAYETS 4 03 Dec 03:26:08 03:30:37 52° 260° (W) 03:35:06
BEESAT 03 Dec 03:28:37 03:30:48 13° 270° (W) 03:32:58 436.000
ITAMSAT 1 03 Dec 03:59:39 04:04:38 49° 290° (WNW) 04:09:36 435.822/435.867
KKS-1 03 Dec 04:22:48 04:26:40 29° 264° (W) 04:30:34 437.445
SO-50 03 Dec 04:23:57 04:26:57 17° 40° (NE) 04:29:53 436.795
STARS 03 Dec 04:38:11 04:42:21 41° 261° (W) 04:46:34 437.465
YUBILEINY 03 Dec 04:48:14 04:53:44 18° 61° (ENE) 04:59:12 435.215
PHONESAT 2.4 03 Dec 04:49:40 04:52:19 71° 185° (S) 04:54:58 2401.200-2431.200
AO-7 03 Dec 04:52:26 05:00:33 57° 295° (WNW) 05:08:40 29.400- 29.500
BEESAT 3 03 Dec 04:53:43 04:55:52 14° 110° (ESE) 04:58:02 437.485
CUBESAT XI-V 03 Dec 04:56:28 05:00:48 41° 262° (W) 05:05:09 437.345
AO-85 03 Dec 04:59:03 05:01:02 12° 321° (NW) 05:02:58 145.980
GOMX 1 03 Dec 05:03:28 05:07:41 22° 92° (E) 05:11:55 467.674
BRITE-PL 03 Dec 05:08:45 05:13:59 55° 100° (E) 05:19:29 437.365/2234.400
CUTE-I 03 Dec 05:10:27 05:12:26 12° 89° (E) 05:14:25 437.470
BEESAT 2 03 Dec 05:16:20 05:17:31 11° 108° (ESE) 05:18:43 435.950
Cosmos 2491 03 Dec 05:20:58 05:22:39 11° 72° (ENE) 05:24:20 435.465 / 435.565
HORYU 2 03 Dec 05:27:43 05:32:08 60° 101° (ESE) 05:36:29 437.375
DOVE 4 03 Dec 05:32:19 05:35:50 18° 90° (E) 05:39:18 437.250
STRAND 1 03 Dec 05:32:46 05:36:30 21° 64° (ENE) 05:40:15 437.568
Cubesat XI-IV 03 Dec 05:33:38 05:37:35 21° 93° (E) 05:41:30 437.490
RS-15 03 Dec 05:36:49 05:37:29 10° 91° (E) 05:38:07 29.354- 29.394
NOAA 15 03 Dec 05:42:41 05:47:11 28° 95° (E) 05:51:40 137.62
SO-50 03 Dec 06:03:24 06:07:55 71° 239° (WSW) 06:12:20 436.795
Cosmos 2504 03 Dec 06:10:32 06:17:54 28° 67° (ENE) 06:24:58 435.465 / 435.565
AIST 1 03 Dec 06:11:40 06:13:59 14° 69° (ENE) 06:16:19
PHONESAT 2.4 03 Dec 06:25:07 06:27:23 25° 202° (SSW) 06:29:40 2401.200-2431.200
NOAA 18 03 Dec 06:27:56 06:33:10 42° 99° (E) 06:38:22 137.9125
BEESAT 3 03 Dec 06:29:18 06:33:04 48° 306° (NW) 06:36:55 437.485
LilacSat-2 03 Dec 06:31:38 06:35:26 85° 280° (W) 06:39:11 437.200
GOMX 1 03 Dec 06:40:43 06:45:56 50° 288° (WNW) 06:51:14 467.674
YUBILEINY 03 Dec 06:43:06 06:51:59 83° 82° (E) 07:00:50 435.215
CUTE 1.7 + AOD 2 03 Dec 06:47:07 06:48:27 11° 90° (E) 06:49:47 437.475
CUTE-I 03 Dec 06:47:45 06:53:07 82° 285° (WNW) 06:58:25 437.470
AO-7 03 Dec 06:48:01 06:51:31 13° 316° (NW) 06:55:03 29.400- 29.500
BRITE-PL 03 Dec 06:48:10 06:52:05 21° 294° (WNW) 06:56:09 437.365/2234.400
BEESAT 2 03 Dec 06:50:52 06:54:46 62° 305° (NW) 06:58:44 435.950
HO-68 03 Dec 07:00:05 07:05:57 26° 94° (E) 07:11:47 435.675
CANX-2 03 Dec 07:02:48 07:05:59 20° 94° (E) 07:09:09 2200.000
HORYU 2 03 Dec 07:05:54 07:08:09 14° 298° (WNW) 07:10:24 437.375
DOVE 4 03 Dec 07:08:39 07:13:53 59° 287° (WNW) 07:19:00 437.250
Cosmos 2491 03 Dec 07:08:58 07:17:37 65° 92° (E) 07:26:14 435.465 / 435.565
STRAND 1 03 Dec 07:10:19 07:15:18 50° 260° (W) 07:20:19 437.568
Cubesat XI-IV 03 Dec 07:12:46 07:17:55 50° 289° (WNW) 07:23:01 437.490
CINEMA 3 03 Dec 07:14:59 07:19:40 43° 98° (E) 07:24:06 145.822/145.860
NOAA 15 03 Dec 07:22:11 07:26:59 37° 292° (WNW) 07:31:47 137.62
AAUSAT CUBESAT 2 03 Dec 07:27:28 07:28:31 11° 90° (E) 07:29:34 437.432
SEEDS 03 Dec 07:35:05 07:38:40 27° 96° (E) 07:42:14 437.485
RS-15 03 Dec 07:35:39 07:46:56 58° 112° (ESE) 07:58:44 29.354- 29.394
PRISM 03 Dec 07:43:51 07:47:09 24° 68° (ENE) 07:50:28 437.425
AIST 1 03 Dec 07:47:37 07:51:55 52° 266° (W) 07:56:11
COMPASS 1 03 Dec 07:52:01 07:55:37 28° 96° (E) 07:59:11 437.405
CUBEBUG 2 03 Dec 07:56:11 08:00:01 28° 95° (E) 08:03:44 437.445
ZACube-1 03 Dec 08:00:25 08:01:42 11° 89° (E) 08:02:58 437.345
Cosmos 2504 03 Dec 08:03:14 08:11:58 66° 268° (W) 08:20:15 435.465 / 435.565
NOAA 18 03 Dec 08:08:59 08:13:36 28° 296° (WNW) 08:18:11 137.9125
FUNcube-1 03 Dec 08:09:26 08:11:28 13° 90° (E) 08:13:29 145.935
CUTE 1.7 + AOD 2 03 Dec 08:20:31 08:24:39 59° 286° (WNW) 08:28:48 437.475
CUTE-I 03 Dec 08:30:36 08:32:17 11° 303° (WNW) 08:33:58 437.470
CANX-2 03 Dec 08:38:07 08:41:53 32° 289° (WNW) 08:45:39 2200.000
YUBILEINY 03 Dec 08:41:46 08:47:38 20° 282° (WNW) 08:53:30 435.215
Oscar 11 03 Dec 08:43:00 08:46:50 31° 96° (E) 08:50:39 145.826/435.025
UWE-3 03 Dec 08:45:25 08:49:46 63° 101° (E) 08:53:57 435.000/436.395/437.385
HO-68 03 Dec 08:47:00 08:54:04 60° 291° (WNW) 09:01:05 435.675
AIST 2 03 Dec 08:48:29 08:52:29 57° 119° (ESE) 08:56:34 435.215
UNISAT 6 03 Dec 08:50:13 08:54:19 31° 69° (ENE) 08:58:25 437.425
CINEMA 3 03 Dec 08:52:49 08:56:25 21° 295° (WNW) 08:59:55 145.822/145.860
DELFI C3 03 Dec 08:54:23 08:56:29 14° 92° (E) 08:58:35 145.870
AAUSAT CUBESAT 2 03 Dec 09:00:16 09:04:21 60° 286° (WNW) 09:08:25 437.432
JAS-2 03 Dec 09:06:44 09:09:56 14° 60° (ENE) 09:12:59 435.910
Cosmos 2491 03 Dec 09:07:49 09:15:04 28° 292° (WNW) 09:22:22 435.465 / 435.565
SEEDS 03 Dec 09:10:51 09:14:15 25° 291° (WNW) 09:17:38 437.485
CUSAT 1 03 Dec 09:14:55 09:17:36 21° 96° (E) 09:19:56 437.405
PRISM 03 Dec 09:18:55 09:22:21 26° 264° (W) 09:25:48 437.425
TIGRISAT 03 Dec 09:20:40 09:25:17 59° 74° (ENE) 09:29:54 435.000
ANTELSAT 03 Dec 09:21:13 09:25:52 63° 74° (ENE) 09:30:30 437.575/2403.000
COMPASS 1 03 Dec 09:27:43 09:31:02 24° 292° (WNW) 09:34:21 437.405
DANDE 03 Dec 09:29:03 09:30:50 12° 93° (E) 09:32:29 436.750
CUBEBUG 2 03 Dec 09:32:50 09:36:32 26° 292° (WNW) 09:40:07 437.445
ZACube-1 03 Dec 09:34:11 09:38:25 60° 286° (WNW) 09:42:30 437.345
FUNcube-1 03 Dec 09:43:55 09:48:02 50° 287° (WNW) 09:52:03 145.935
RS-15 03 Dec 09:48:21 09:59:45 49° 317° (NW) 10:11:39 29.354- 29.394
HUMSAT D 03 Dec 09:55:25 09:59:13 36° 98° (E) 10:02:59 437.325/437.525
Cosmos 2504 03 Dec 10:00:52 10:03:27 12° 288° (WNW) 10:06:01 435.465 / 435.565
AO-85 03 Dec 10:08:19 10:09:48 12° 38° (NE) 10:11:16 145.980
NANOSAT C BR1 03 Dec 10:10:59 10:14:17 22° 67° (ENE) 10:17:37 145.865
QB50P2 03 Dec 10:13:15 10:16:51 27° 69° (ENE) 10:20:28 145.880/145.840
POLYITAN 1 03 Dec 10:13:56 10:17:30 26° 68° (ENE) 10:21:04 437.675
Oscar 11 03 Dec 10:19:25 10:22:48 23° 293° (WNW) 10:26:10 145.826/435.025
UWE-3 03 Dec 10:23:49 10:25:38 12° 298° (WNW) 10:27:26 435.000/436.395/437.385
UNISAT 6 03 Dec 10:26:59 10:30:58 27° 265° (W) 10:34:59 437.425
QB50P1 03 Dec 10:27:39 10:31:33 35° 71° (ENE) 10:35:29 145.935-145.965
DELFI C3 03 Dec 10:27:44 10:31:30 43° 287° (WNW) 10:35:16 145.870
AIST 2 03 Dec 10:28:33 10:31:19 17° 317° (NW) 10:34:07 435.215
DUCHIFAT 1 03 Dec 10:34:13 10:38:06 36° 71° (ENE) 10:42:01 145.980
HO-68 03 Dec 10:37:55 10:40:18 12° 311° (NW) 10:42:43 435.675
JAS-2 03 Dec 10:47:38 10:54:23 88° 70° (ENE) 11:00:20 435.910
POPSAT HIP 1 03 Dec 10:48:29 10:52:41 60° 74° (ENE) 10:56:56 437.405
CUSAT 1 03 Dec 10:57:47 10:59:24 13° 285° (WNW) 11:00:53 437.405
TIGRISAT 03 Dec 10:59:47 11:02:18 14° 269° (W) 11:04:50 435.000
ANTELSAT 03 Dec 11:00:42 11:02:57 13° 270° (W) 11:05:13 437.575/2403.000
DANDE 03 Dec 11:08:23 11:13:27 54° 280° (W) 11:17:15 436.750
CUBEBUG 1 03 Dec 11:11:23 11:14:52 22° 94° (E) 11:18:19 437.445
Cosmos 2499 03 Dec 11:12:39 11:20:31 36° 70° (ENE) 11:27:54 435.465 / 435.565
VELOX 1 03 Dec 11:14:24 11:17:09 16° 92° (E) 11:19:53 145.980
50 SAT 03 Dec 11:18:02 11:19:11 11° 92° (E) 11:20:20 437.505
GONETS M04 03 Dec 11:20:04 11:28:00 37° 72° (ENE) 11:35:55
HUMSAT D 03 Dec 11:31:47 11:34:33 18° 294° (WNW) 11:37:18 437.325/437.525
PCSat 03 Dec 11:32:23 11:37:12 34° 110° (ESE) 11:42:02 145.827
DX 1 03 Dec 11:38:35 11:41:09 15° 92° (E) 11:43:42 434.975-435.025
Oscar 19 03 Dec 11:39:08 11:42:51 21° 63° (ENE) 11:46:34 437.125/150
BUGSAT 1 03 Dec 11:43:54 11:48:06 84° 75° (ENE) 11:52:23 437.445
NANOSAT C BR1 03 Dec 11:46:00 11:49:50 32° 263° (W) 11:53:40 145.865
AO-85 03 Dec 11:46:52 11:50:51 87° 239° (WSW) 11:54:42 145.980
QB50P2 03 Dec 11:48:58 11:52:35 26° 265° (W) 11:56:13 145.880/145.840
POLYITAN 1 03 Dec 11:49:31 11:53:12 27° 264° (W) 11:56:53 437.675
UKube-1 03 Dec 11:52:00 11:54:37 16° 92° (E) 11:57:13 .
ESTCUBE 1 03 Dec 11:52:12 11:56:43 81° 284° (WNW) 12:01:14 437.505/2401.250
QB50P1 03 Dec 12:04:17 12:07:25 20° 266° (W) 12:10:33 145.935-145.965
RS-15 03 Dec 12:07:02 12:16:23 24° 349° (NNW) 12:25:53 29.354- 29.394
SPROUT 03 Dec 12:10:14 12:14:20 42° 99° (E) 12:18:23 437.525
DUCHIFAT 1 03 Dec 12:10:48 12:13:53 19° 267° (W) 12:16:58 145.980
AISAT 03 Dec 12:12:14 12:16:44 72° 102° (ESE) 12:21:11 437.250
AO-7 03 Dec 12:14:41 12:16:04 10° 40° (NE) 12:17:27 29.400- 29.500
POPSAT HIP 1 03 Dec 12:27:16 12:28:50 12° 270° (W) 12:30:24 437.405
JAS-2 03 Dec 12:36:47 12:39:55 14° 269° (W) 12:42:55 435.910
CUBEBUG 1 03 Dec 12:47:11 12:51:11 34° 290° (WNW) 12:55:11 437.445
Gurwin Techsat 1B 03 Dec 12:47:47 12:52:49 45° 70° (ENE) 12:57:52 435.225
50 SAT 03 Dec 12:49:20 12:52:42 41° 287° (WNW) 12:56:04 437.505
VELOX 1 03 Dec 12:49:33 12:53:51 48° 288° (WNW) 12:58:08 145.980
Cosmos 2499 03 Dec 13:05:38 13:13:51 50° 272° (W) 13:21:33 435.465 / 435.565
BEESAT 3 03 Dec 13:10:10 13:11:49 12° 40° (NE) 13:13:27 437.485
DX 1 03 Dec 13:13:21 13:17:36 49° 288° (WNW) 13:21:48 434.975-435.025
PCSat 03 Dec 13:15:35 13:20:32 36° 308° (NW) 13:25:31 145.827
GONETS M04 03 Dec 13:16:45 13:24:58 48° 272° (W) 13:33:11
Oscar 19 03 Dec 13:16:49 13:21:47 50° 260° (W) 13:26:47 437.125/150
UKube-1 03 Dec 13:26:43 13:30:53 46° 288° (WNW) 13:35:01 .
BEESAT 2 03 Dec 13:33:18 13:34:05 10° 38° (NE) 13:34:53 435.950
ITAMSAT 1 03 Dec 13:38:46 13:43:21 32° 67° (ENE) 13:47:57 435.822/435.867
TISAT 1 03 Dec 13:43:10 13:47:25 75° 103° (ESE) 13:51:37 437.305
SWISSCUBE 03 Dec 13:44:45 13:47:46 17° 92° (E) 13:50:45 437.505
SPROUT 03 Dec 13:47:03 13:49:55 18° 295° (WNW) 13:52:47 437.525
AUBIESAT-1 03 Dec 13:47:13 13:49:32 14° 95° (E) 13:51:47 437.475
BEESAT 03 Dec 13:49:09 13:52:09 16° 92° (E) 13:55:07 436.000
AISAT 03 Dec 13:50:51 13:52:35 12° 299° (WNW) 13:54:18 437.250
M-CUBED/EXP-1 PRIME 03 Dec 13:55:45 13:59:20 21° 98° (E) 14:02:49 437.505
AO-7 03 Dec 13:58:58 14:06:44 46° 62° (ENE) 14:14:31 29.400- 29.500
ITUPSAT 1 03 Dec 14:13:50 14:17:58 29° 96° (E) 14:22:03 437.325
RS-15 03 Dec 14:24:14 14:34:35 29° 24° (NNE) 14:44:48 29.354- 29.394
Gurwin Techsat 1B 03 Dec 14:28:48 14:32:56 23° 266° (W) 14:37:06 435.225
BEESAT 3 03 Dec 14:46:01 14:50:02 87° 239° (WSW) 14:53:59 437.485
BEESAT 2 03 Dec 15:08:33 15:12:36 74° 57° (ENE) 15:16:36 435.950
ITAMSAT 1 03 Dec 15:18:08 15:22:46 32° 263° (W) 15:27:25 435.822/435.867
AUBIESAT-1 03 Dec 15:19:43 15:24:18 63° 291° (WNW) 15:28:44 437.475
MOZHAYETS 4 03 Dec 15:21:07 15:25:18 35° 97° (E) 15:29:28
SWISSCUBE 03 Dec 15:21:13 15:25:50 51° 288° (WNW) 15:30:25 437.505
TISAT 1 03 Dec 15:21:35 15:22:25 10° 299° (WNW) 15:23:15 437.305
BEESAT 03 Dec 15:25:36 15:30:13 52° 288° (WNW) 15:34:49 436.000
M-CUBED/EXP-1 PRIME 03 Dec 15:29:28 15:33:54 42° 294° (WNW) 15:38:13 437.505
ITUPSAT 1 03 Dec 15:51:36 15:55:44 30° 292° (WNW) 15:59:51 437.325
AO-7 03 Dec 15:51:50 15:59:31 41° 261° (W) 16:07:16 29.400- 29.500
ISS 03 Dec 16:09:31 16:10:52 12° 129° (SE) 16:12:13 145.825
GOMX 1 03 Dec 16:12:17 16:15:34 20° 64° (ENE) 16:19:01 467.674
KKS-1 03 Dec 16:12:55 16:17:19 52° 100° (E) 16:21:41 437.445
NOAA 18 03 Dec 16:17:58 16:19:52 12° 56° (NE) 16:21:47 137.9125
BRITE-PL 03 Dec 16:20:16 16:24:23 54° 73° (ENE) 16:28:46 437.365/2234.400
HORYU 2 03 Dec 16:25:20 16:29:43 56° 73° (ENE) 16:34:07 437.375
STARS 03 Dec 16:27:24 16:31:27 34° 97° (E) 16:35:28 437.465
CUTE-I 03 Dec 16:31:15 16:35:17 22° 63° (ENE) 16:39:19 437.470
RS-15 03 Dec 16:37:25 16:49:51 71° 53° (NE) 17:01:50 29.354- 29.394
DOVE 4 03 Dec 16:38:07 16:41:07 17° 62° (ENE) 16:44:13 437.250
O/OREOS (USA 219) 03 Dec 16:48:21 16:52:56 82° 293° (WNW) 16:57:30 437.305
CUBESAT XI-V 03 Dec 16:52:32 16:57:02 47° 99° (E) 17:01:32 437.345
Cubesat XI-IV 03 Dec 16:55:15 17:00:05 35° 67° (ENE) 17:04:55 437.490
MOZHAYETS 4 03 Dec 16:58:42 17:02:15 23° 293° (WNW) 17:05:48
NOAA 15 03 Dec 17:02:35 17:07:33 45° 70° (ENE) 17:12:31 137.62
AIST 2 03 Dec 17:09:45 17:13:43 38° 51° (NE) 17:17:40 435.215
LilacSat-2 03 Dec 17:13:11 17:16:52 44° 73° (ENE) 17:20:33 437.200
Cosmos 2491 03 Dec 17:19:46 17:27:20 32° 69° (ENE) 17:34:50 435.465 / 435.565
HO-68 03 Dec 17:29:58 17:35:00 21° 56° (NE) 17:40:04 435.675
ISS 03 Dec 17:43:39 17:46:56 76° 325° (NW) 17:50:15 145.825
GOMX 1 03 Dec 17:49:04 17:53:17 42° 263° (W) 17:57:50 467.674
KKS-1 03 Dec 17:50:43 17:53:26 16° 297° (WNW) 17:56:09 437.445
YUBILEINY 03 Dec 17:51:08 17:56:37 19° 77° (ENE) 18:02:07 435.215
NOAA 18 03 Dec 17:54:04 17:59:35 79° 74° (ENE) 18:05:10 137.9125
CANX-2 03 Dec 17:56:18 17:58:49 16° 65° (ENE) 18:01:20 2200.000
BRITE-PL 03 Dec 18:01:30 18:03:21 13° 271° (W) 18:05:15 437.365/2234.400
STARS 03 Dec 18:04:09 18:07:36 23° 294° (WNW) 18:11:01 437.465
HORYU 2 03 Dec 18:04:16 18:06:35 14° 269° (W) 18:08:54 437.375
CUTE-I 03 Dec 18:09:45 18:14:57 51° 260° (W) 18:20:12 437.470
DOVE 4 03 Dec 18:13:37 18:18:14 58° 261° (W) 18:23:10 437.250
CINEMA 3 03 Dec 18:15:50 18:20:23 40° 70° (ENE) 18:25:04 145.822/145.860
SEEDS 03 Dec 18:27:12 18:30:13 20° 67° (ENE) 18:33:13 437.485
CUBESAT XI-V 03 Dec 18:30:52 18:34:03 18° 295° (WNW) 18:37:14 437.345
O/OREOS (USA 219) 03 Dec 18:32:39 18:33:06 10° 311° (NW) 18:33:32 437.305
Cubesat XI-IV 03 Dec 18:35:26 18:40:08 31° 264° (W) 18:44:52 437.490
COMPASS 1 03 Dec 18:43:11 18:46:09 19° 67° (ENE) 18:49:07 437.405
NOAA 15 03 Dec 18:43:27 18:47:30 22° 266° (W) 18:51:34 137.62
AIST 2 03 Dec 18:48:44 18:51:57 21° 248° (WSW) 18:55:10 435.215
LilacSat-2 03 Dec 18:49:38 18:51:22 13° 269° (W) 18:53:08 437.200
Cosmos 2504 03 Dec 18:49:59 18:55:52 22° 78° (ENE) 19:01:59 435.465 / 435.565
RS-15 03 Dec 18:50:54 19:01:25 35° 256° (WSW) 19:11:38 29.354- 29.394
CUBEBUG 2 03 Dec 18:53:47 18:57:43 26° 68° (ENE) 19:01:39 437.445
ZACube-1 03 Dec 18:56:41 18:57:58 11° 62° (ENE) 18:59:13 437.345
FUNcube-1 03 Dec 19:05:19 19:07:17 13° 63° (ENE) 19:09:14 145.935
CUTE 1.7 + AOD 2 03 Dec 19:12:35 19:16:48 87° 252° (WSW) 19:21:03 437.475
HO-68 03 Dec 19:14:45 19:21:55 81° 255° (WSW) 19:29:08 435.675
Cosmos 2491 03 Dec 19:16:08 19:24:35 57° 269° (W) 19:33:01 435.465 / 435.565
STRAND 1 03 Dec 19:20:38 19:25:39 55° 101° (E) 19:30:38 437.568
ISS 03 Dec 19:21:27 19:23:53 19° 344° (NNW) 19:26:19 145.825
CANX-2 03 Dec 19:30:13 19:34:17 46° 261° (W) 19:38:22 2200.000
Oscar 11 03 Dec 19:37:53 19:41:23 25° 68° (ENE) 19:44:54 145.826/435.025
NOAA 18 03 Dec 19:38:11 19:40:51 14° 270° (W) 19:43:31 137.9125
UWE-3 03 Dec 19:41:34 19:46:06 51° 73° (ENE) 19:50:36 435.000/436.395/437.385
YUBILEINY 03 Dec 19:43:27 19:52:10 86° 275° (W) 20:00:59 435.215
CUSAT 1 03 Dec 19:45:12 19:47:16 15° 76° (ENE) 19:49:35 437.405
AAUSAT CUBESAT 2 03 Dec 19:49:53 19:53:59 86° 77° (ENE) 19:58:07 437.432
CINEMA 3 03 Dec 19:53:46 19:57:37 23° 267° (W) 20:01:34 145.822/145.860
SEEDS 03 Dec 20:01:51 20:05:40 35° 263° (W) 20:09:30 437.485
AIST 1 03 Dec 20:16:21 20:20:39 89° 281° (WNW) 20:25:00
SO-50 03 Dec 20:17:17 20:21:41 37° 116° (ESE) 20:26:03 436.795
COMPASS 1 03 Dec 20:17:41 20:21:27 34° 263° (W) 20:25:15 437.405
PCSat 03 Dec 20:19:53 20:24:38 30° 50° (NE) 20:29:20 145.827
ZACube-1 03 Dec 20:29:00 20:33:35 81° 259° (WSW) 20:38:08 437.345
CUBEBUG 2 03 Dec 20:29:52 20:34:10 33° 264° (W) 20:38:28 437.445
FUNcube-1 03 Dec 20:38:24 20:42:57 69° 259° (W) 20:47:27 145.935
Cosmos 2504 03 Dec 20:39:54 20:48:08 78° 278° (W) 20:56:59 435.465 / 435.565
HUMSAT D 03 Dec 20:46:36 20:50:08 26° 69° (ENE) 20:53:39 437.325/437.525
PRISM 03 Dec 20:59:30 21:03:25 38° 99° (E) 21:07:19 437.425
ISS 03 Dec 20:59:31 21:01:21 14° 4° (N) 21:03:11 145.825
STRAND 1 03 Dec 21:00:53 21:04:24 19° 297° (WNW) 21:07:53 437.568
HO-68 03 Dec 21:07:34 21:10:39 13° 272° (W) 21:13:46 435.675
DELFI C3 03 Dec 21:12:44 21:16:38 80° 256° (WSW) 21:20:35 145.870
Oscar 11 03 Dec 21:13:38 21:17:24 29° 264° (W) 21:21:10 145.826/435.025
TIGRISAT 03 Dec 21:14:43 21:16:11 11° 89° (E) 21:17:37 435.000
ANTELSAT 03 Dec 21:15:05 21:16:57 12° 90° (E) 21:18:47 437.575/2403.000
UWE-3 03 Dec 21:19:55 21:22:48 16° 269° (W) 21:25:41 435.000/436.395/437.385
CUSAT 1 03 Dec 21:25:53 21:29:03 32° 263° (W) 21:33:00 437.405
YUBILEINY 03 Dec 21:44:46 21:50:21 18° 299° (WNW) 21:55:59 435.215
DANDE 03 Dec 21:45:16 21:48:00 86° 256° (WSW) 21:51:12 436.750
SO-50 03 Dec 21:58:04 22:02:12 29° 313° (NW) 22:06:19 436.795
PCSat 03 Dec 22:03:03 22:08:09 43° 248° (WSW) 22:13:13 145.827
CUBEBUG 1 03 Dec 22:07:43 22:10:47 19° 65° (ENE) 22:13:52 437.445
VELOX 1 03 Dec 22:12:11 22:14:41 15° 63° (ENE) 22:17:12 145.980
UNISAT 6 03 Dec 22:18:00 22:22:26 64° 101° (E) 22:26:43 437.425
HUMSAT D 03 Dec 22:22:08 22:25:40 26° 265° (W) 22:29:11 437.325/437.525
DX 1 03 Dec 22:34:41 22:36:58 14° 63° (ENE) 22:39:16 434.975-435.025
PRISM 03 Dec 22:35:35 22:38:25 18° 295° (WNW) 22:41:14 437.425
ISS 03 Dec 22:35:46 22:38:41 28° 24° (NNE) 22:41:36 145.825
Cosmos 2504 03 Dec 22:38:11 22:43:10 17° 301° (WNW) 22:48:20 435.465 / 435.565
UKube-1 03 Dec 22:47:06 22:49:23 14° 63° (ENE) 22:51:41 .
TIGRISAT 03 Dec 22:48:56 22:53:19 63° 286° (WNW) 22:57:35 435.000
ANTELSAT 03 Dec 22:49:42 22:54:04 58° 286° (WNW) 22:58:18 437.575/2403.000
ESTCUBE 1 03 Dec 22:51:20 22:55:48 90° 257° (WSW) 23:00:18 437.505/2401.250
SPROUT 03 Dec 23:03:33 23:07:23 32° 70° (ENE) 23:11:13 437.525
AISAT 03 Dec 23:09:11 23:13:31 62° 74° (ENE) 23:17:56 437.250
50 SAT 03 Dec 23:24:05 23:27:34 72° 76° (ENE) 23:31:05 437.505
BUGSAT 1 03 Dec 23:27:44 23:29:26 12° 90° (E) 23:31:06 437.445
NANOSAT C BR1 03 Dec 23:29:55 23:33:54 38° 98° (E) 23:37:49 145.865
QB50P2 03 Dec 23:33:03 23:37:11 48° 99° (E) 23:41:16 145.880/145.840
POLYITAN 1 03 Dec 23:33:42 23:37:48 46° 99° (E) 23:41:50 437.675
JAS-2 03 Dec 23:41:43 23:46:54 75° 103° (ESE) 23:52:16 435.910
CUBEBUG 1 03 Dec 23:42:40 23:46:45 40° 262° (W) 23:50:53 437.445
VELOX 1 03 Dec 23:46:23 23:50:41 54° 260° (W) 23:55:03 145.980
QB50P1 03 Dec 23:47:31 23:51:46 67° 101° (E) 23:55:57 145.935-145.965
Cosmos 2499 03 Dec 23:49:02 23:55:59 29° 82° (E) 00:03:10 435.465 / 435.565
DUCHIFAT 1 03 Dec 23:53:21 23:57:34 66° 101° (E) 00:01:44 145.980
UNISAT 6 03 Dec 23:56:35 23:58:33 13° 298° (WNW) 00:00:31 437.425
DX 1 04 Dec 00:08:24 00:12:40 57° 259° (W) 00:16:58 434.975-435.025
POPSAT HIP 1 04 Dec 00:08:48 00:13:03 72° 285° (WNW) 00:17:15 437.405
ISS 04 Dec 00:12:08 00:15:18 43° 221° (SW) 00:18:26 145.825
UKube-1 04 Dec 00:20:43 00:24:57 55° 259° (W) 00:29:13 .
GONETS M04 04 Dec 00:21:10 00:29:10 43° 87° (E) 00:37:09
AUBIESAT-1 04 Dec 00:32:29 00:35:06 17° 58° (ENE) 00:37:50 437.475
TISAT 1 04 Dec 00:34:19 00:38:26 53° 73° (ENE) 00:42:35 437.305
SPROUT 04 Dec 00:39:58 00:43:20 22° 266° (W) 00:46:42 437.525
M-CUBED/EXP-1 PRIME 04 Dec 00:41:39 00:44:57 24° 61° (ENE) 00:48:27 437.505
AISAT 04 Dec 00:48:42 00:50:23 12° 270° (W) 00:52:06 437.250
SWISSCUBE 04 Dec 00:51:09 00:54:38 21° 64° (ENE) 00:58:06 437.505
BEESAT 04 Dec 00:55:29 00:58:57 20° 64° (ENE) 01:02:26 436.000
BUGSAT 1 04 Dec 01:01:00 01:05:08 55° 286° (WNW) 01:09:12 437.445
Gurwin Techsat 1B 04 Dec 01:04:57 01:08:28 18° 92° (E) 01:11:57 435.225
NANOSAT C BR1 04 Dec 01:06:22 01:09:19 19° 294° (WNW) 01:12:15 145.865
QB50P2 04 Dec 01:10:05 01:12:34 15° 296° (WNW) 01:15:03 145.880/145.840
POLYITAN 1 04 Dec 01:10:36 01:13:12 16° 295° (WNW) 01:15:47 437.675
